Year,Month,Day,Hour,Minute,Value (Times are PST for temperature in C)
2012,12,08,00,00,-7.20
2012,12,08,00,01,-7.10
2012,12,08,00,02,-7.10
2012,12,08,00,03,-7.10
2012,12,08,00,04,-7.10
2012,12,08,00,05,-7.10
2012,12,08,00,06,-7.10
2012,12,08,00,07,-7.10
2012,12,08,00,08,-7.10
2012,12,08,00,09,-7.00
2012,12,08,00,10,-7.00
2012,12,08,00,11,-7.00
2012,12,08,00,12,-7.00
2012,12,08,00,13,-7.00
2012,12,08,00,14,-7.00
2012,12,08,00,15,-7.00
2012,12,08,00,16,-7.00
2012,12,08,00,17,-7.00
2012,12,08,00,18,-7.00
2012,12,08,00,19,-7.00
2012,12,08,00,20,-7.00
2012,12,08,00,21,-6.90
2012,12,08,00,22,-6.90
2012,12,08,00,23,-6.90
2012,12,08,00,24,-6.90
2012,12,08,00,25,-6.90
2012,12,08,00,26,-6.90
2012,12,08,00,27,-6.90
2012,12,08,00,28,-6.80
2012,12,08,00,29,-6.80
2012,12,08,00,30,-6.80
2012,12,08,00,31,-6.80
2012,12,08,00,32,-6.80
2012,12,08,00,33,-6.80
2012,12,08,00,34,-6.80
2012,12,08,00,35,-6.80
2012,12,08,00,36,-6.80
2012,12,08,00,37,-6.70
2012,12,08,00,38,-6.70
2012,12,08,00,39,-6.70
2012,12,08,00,40,-6.70
2012,12,08,00,41,-6.70
2012,12,08,00,42,-6.70
2012,12,08,00,43,-6.60
2012,12,08,00,44,-6.70
2012,12,08,00,45,-6.60
2012,12,08,00,46,-6.60
2012,12,08,00,47,-6.60
2012,12,08,00,48,-6.60
2012,12,08,00,49,-6.60
2012,12,08,00,50,-6.60
2012,12,08,00,51,-6.60
2012,12,08,00,52,-6.60
2012,12,08,00,53,-6.60
2012,12,08,00,54,-6.60
2012,12,08,00,55,-6.60
2012,12,08,00,56,-6.60
2012,12,08,00,57,-6.60
2012,12,08,00,58,-6.60
2012,12,08,00,59,-6.60
2012,12,08,01,00,-6.60
2012,12,08,01,01,-6.60
2012,12,08,01,02,-6.60
2012,12,08,01,03,-6.60
2012,12,08,01,04,-6.60
2012,12,08,01,05,-6.60
2012,12,08,01,06,-6.60
2012,12,08,01,07,-6.60
2012,12,08,01,08,-6.60
2012,12,08,01,09,-6.60
2012,12,08,01,10,-6.60
2012,12,08,01,11,-6.60
2012,12,08,01,12,-6.60
2012,12,08,01,13,-6.60
2012,12,08,01,14,-6.60
2012,12,08,01,15,-6.60
2012,12,08,01,16,-6.60
2012,12,08,01,17,-6.60
2012,12,08,01,18,-6.60
2012,12,08,01,19,-6.60
2012,12,08,01,20,-6.60
2012,12,08,01,21,-6.60
2012,12,08,01,22,-6.60
2012,12,08,01,23,-6.60
2012,12,08,01,24,-6.60
2012,12,08,01,25,-6.60
2012,12,08,01,26,-6.50
2012,12,08,01,27,-6.50
2012,12,08,01,28,-6.50
2012,12,08,01,29,-6.50
2012,12,08,01,30,-6.50
2012,12,08,01,31,-6.50
2012,12,08,01,32,-6.50
2012,12,08,01,33,-6.50
2012,12,08,01,34,-6.50
2012,12,08,01,35,-6.50
2012,12,08,01,36,-6.50
2012,12,08,01,37,-6.50
2012,12,08,01,38,-6.50
2012,12,08,01,39,-6.50
2012,12,08,01,40,-6.50
2012,12,08,01,41,-6.50
2012,12,08,01,42,-6.50
2012,12,08,01,43,-6.50
2012,12,08,01,44,-6.50
2012,12,08,01,45,-6.40
2012,12,08,01,46,-6.40
2012,12,08,01,47,-6.40
2012,12,08,01,48,-6.40
2012,12,08,01,49,-6.40
2012,12,08,01,50,-6.40
2012,12,08,01,51,-6.40
2012,12,08,01,52,-6.40
2012,12,08,01,53,-6.40
2012,12,08,01,54,-6.40
2012,12,08,01,55,-6.40
2012,12,08,01,56,-6.40
2012,12,08,01,57,-6.40
2012,12,08,01,58,-6.40
2012,12,08,01,59,-6.40
2012,12,08,02,00,-6.40
2012,12,08,02,01,-6.40
2012,12,08,02,02,-6.30
2012,12,08,02,03,-6.30
2012,12,08,02,04,-6.30
2012,12,08,02,05,-6.30
2012,12,08,02,06,-6.30
2012,12,08,02,07,-6.30
2012,12,08,02,08,-6.30
2012,12,08,02,09,-6.30
2012,12,08,02,10,-6.30
2012,12,08,02,11,-6.30
2012,12,08,02,12,-6.30
2012,12,08,02,13,-6.30
2012,12,08,02,14,-6.30
2012,12,08,02,15,-6.30
2012,12,08,02,16,-6.30
2012,12,08,02,17,-6.30
2012,12,08,02,18,-6.40
2012,12,08,02,19,-6.30
2012,12,08,02,20,-6.30
2012,12,08,02,21,-6.30
2012,12,08,02,22,-6.30
2012,12,08,02,23,-6.30
2012,12,08,02,24,-6.30
2012,12,08,02,25,-6.30
2012,12,08,02,26,-6.30
2012,12,08,02,27,-6.30
2012,12,08,02,28,-6.30
2012,12,08,02,29,-6.30
2012,12,08,02,30,-6.30
2012,12,08,02,31,-6.30
2012,12,08,02,32,-6.30
2012,12,08,02,33,-6.30
2012,12,08,02,34,-6.30
2012,12,08,02,35,-6.30
2012,12,08,02,36,-6.30
2012,12,08,02,37,-6.30
2012,12,08,02,38,-6.30
2012,12,08,02,39,-6.30
2012,12,08,02,40,-6.30
2012,12,08,02,41,-6.30
2012,12,08,02,42,-6.30
2012,12,08,02,43,-6.30
2012,12,08,02,44,-6.30
2012,12,08,02,45,-6.30
2012,12,08,02,46,-6.30
2012,12,08,02,47,-6.30
2012,12,08,02,48,-6.30
2012,12,08,02,49,-6.30
2012,12,08,02,50,-6.30
2012,12,08,02,51,-6.30
2012,12,08,02,52,-6.30
2012,12,08,02,53,-6.30
2012,12,08,02,54,-6.30
2012,12,08,02,55,-6.30
2012,12,08,02,56,-6.30
2012,12,08,02,57,-6.30
2012,12,08,02,58,-6.20
2012,12,08,02,59,-6.20
2012,12,08,03,00,-6.20
2012,12,08,03,01,-6.20
2012,12,08,03,02,-6.20
2012,12,08,03,03,-6.20
2012,12,08,03,04,-6.20
2012,12,08,03,05,-6.20
2012,12,08,03,06,-6.20
2012,12,08,03,07,-6.20
2012,12,08,03,08,-6.20
2012,12,08,03,09,-6.20
2012,12,08,03,10,-6.20
2012,12,08,03,11,-6.20
2012,12,08,03,12,-6.20
2012,12,08,03,13,-6.20
2012,12,08,03,14,-6.20
2012,12,08,03,15,-6.20
2012,12,08,03,16,-6.20
2012,12,08,03,17,-6.20
2012,12,08,03,18,-6.20
2012,12,08,03,19,-6.20
2012,12,08,03,20,-6.20
2012,12,08,03,21,-6.20
2012,12,08,03,22,-6.20
2012,12,08,03,23,-6.20
2012,12,08,03,24,-6.20
2012,12,08,03,25,-6.20
2012,12,08,03,26,-6.20
2012,12,08,03,27,-6.20
2012,12,08,03,28,-6.20
2012,12,08,03,29,-6.20
2012,12,08,03,30,-6.10
2012,12,08,03,31,-6.10
2012,12,08,03,32,-6.10
2012,12,08,03,33,-6.10
2012,12,08,03,34,-6.10
2012,12,08,03,35,-6.10
2012,12,08,03,36,-6.10
2012,12,08,03,37,-6.10
2012,12,08,03,38,-6.10
2012,12,08,03,39,-6.10
2012,12,08,03,40,-6.10
2012,12,08,03,41,-6.10
2012,12,08,03,42,-6.10
2012,12,08,03,43,-6.10
2012,12,08,03,44,-6.10
2012,12,08,03,45,-6.10
2012,12,08,03,46,-6.10
2012,12,08,03,47,-6.10
2012,12,08,03,48,-6.00
2012,12,08,03,49,-6.00
2012,12,08,03,50,-6.00
2012,12,08,03,51,-6.00
2012,12,08,03,52,-6.00
2012,12,08,03,53,-6.00
2012,12,08,03,54,-6.00
2012,12,08,03,55,-5.90
2012,12,08,03,56,-5.90
2012,12,08,03,57,-5.90
2012,12,08,03,58,-5.90
2012,12,08,03,59,-5.90
2012,12,08,04,00,-5.90
2012,12,08,04,01,-5.90
2012,12,08,04,02,-5.90
2012,12,08,04,03,-5.90
2012,12,08,04,04,-5.80
2012,12,08,04,05,-5.80
2012,12,08,04,06,-5.80
2012,12,08,04,07,-5.80
2012,12,08,04,08,-5.80
2012,12,08,04,09,-5.80
2012,12,08,04,10,-5.80
2012,12,08,04,11,-5.80
2012,12,08,04,12,-5.80
2012,12,08,04,13,-5.80
2012,12,08,04,14,-5.80
2012,12,08,04,15,-5.80
2012,12,08,04,16,-5.80
2012,12,08,04,17,-5.80
2012,12,08,04,18,-5.80
2012,12,08,04,19,-5.80
2012,12,08,04,20,-5.80
2012,12,08,04,21,-5.80
2012,12,08,04,22,-5.80
2012,12,08,04,23,-5.80
2012,12,08,04,24,-5.70
2012,12,08,04,25,-5.70
2012,12,08,04,26,-5.70
2012,12,08,04,27,-5.70
2012,12,08,04,28,-5.70
2012,12,08,04,29,-5.70
2012,12,08,04,30,-5.70
2012,12,08,04,31,-5.70
2012,12,08,04,32,-5.70
2012,12,08,04,33,-5.70
2012,12,08,04,34,-5.70
2012,12,08,04,35,-5.70
2012,12,08,04,36,-5.60
2012,12,08,04,37,-5.60
2012,12,08,04,38,-5.60
2012,12,08,04,39,-5.60
2012,12,08,04,40,-5.60
2012,12,08,04,41,-5.60
2012,12,08,04,42,-5.50
2012,12,08,04,43,-5.60
2012,12,08,04,44,-5.50
2012,12,08,04,45,-5.50
2012,12,08,04,46,-5.50
2012,12,08,04,47,-5.50
2012,12,08,04,48,-5.50
2012,12,08,04,49,-5.50
2012,12,08,04,50,-5.50
2012,12,08,04,51,-5.50
2012,12,08,04,52,-5.50
2012,12,08,04,53,-5.50
2012,12,08,04,54,-5.50
2012,12,08,04,55,-5.50
2012,12,08,04,56,-5.50
2012,12,08,04,57,-5.50
2012,12,08,04,58,-5.50
2012,12,08,04,59,-5.50
2012,12,08,05,00,-5.50
2012,12,08,05,01,-5.60
2012,12,08,05,02,-5.60
2012,12,08,05,03,-5.50
2012,12,08,05,04,-5.60
2012,12,08,05,05,-5.50
2012,12,08,05,06,-5.60
2012,12,08,05,07,-5.60
2012,12,08,05,08,-5.60
2012,12,08,05,09,-5.60
2012,12,08,05,10,-5.60
2012,12,08,05,11,-5.60
2012,12,08,05,12,-5.60
2012,12,08,05,13,-5.70
2012,12,08,05,14,-5.70
2012,12,08,05,15,-5.70
2012,12,08,05,16,-5.70
2012,12,08,05,17,-5.70
2012,12,08,05,18,-5.70
2012,12,08,05,19,-5.70
2012,12,08,05,20,-5.70
2012,12,08,05,21,-5.70
2012,12,08,05,22,-5.70
2012,12,08,05,23,-5.80
2012,12,08,05,24,-5.70
2012,12,08,05,25,-5.80
2012,12,08,05,26,-5.80
2012,12,08,05,27,-5.80
2012,12,08,05,28,-5.80
2012,12,08,05,29,-5.80
2012,12,08,05,30,-5.80
2012,12,08,05,31,-5.80
2012,12,08,05,32,-5.80
2012,12,08,05,33,-5.90
2012,12,08,05,34,-5.90
2012,12,08,05,35,-5.90
2012,12,08,05,36,-5.90
2012,12,08,05,37,-5.90
2012,12,08,05,38,-5.90
2012,12,08,05,39,-5.90
2012,12,08,05,40,-5.90
2012,12,08,05,41,-5.90
2012,12,08,05,42,-5.90
2012,12,08,05,43,-5.90
2012,12,08,05,44,-5.90
2012,12,08,05,45,-5.90
2012,12,08,05,46,-5.90
2012,12,08,05,47,-5.90
2012,12,08,05,48,-5.90
2012,12,08,05,49,-5.90
2012,12,08,05,50,-5.90
2012,12,08,05,51,-5.90
2012,12,08,05,52,-5.90
2012,12,08,05,53,-5.90
2012,12,08,05,54,-5.90
2012,12,08,05,55,-5.90
2012,12,08,05,56,-5.90
2012,12,08,05,57,-5.90
2012,12,08,05,58,-5.90
2012,12,08,05,59,-5.90
2012,12,08,06,00,-5.90
2012,12,08,06,01,-5.90
2012,12,08,06,02,-5.90
2012,12,08,06,03,-5.90
2012,12,08,06,04,-5.90
2012,12,08,06,05,-5.90
2012,12,08,06,06,-5.90
2012,12,08,06,07,-5.90
2012,12,08,06,08,-5.90
2012,12,08,06,09,-5.90
2012,12,08,06,10,-5.90
2012,12,08,06,11,-5.90
2012,12,08,06,12,-5.90
2012,12,08,06,13,-5.90
2012,12,08,06,14,-5.90
2012,12,08,06,15,-5.90
2012,12,08,06,16,-5.90
2012,12,08,06,17,-5.90
2012,12,08,06,18,-5.90
2012,12,08,06,19,-5.90
2012,12,08,06,20,-5.90
2012,12,08,06,21,-5.90
2012,12,08,06,22,-5.90
2012,12,08,06,23,-5.90
2012,12,08,06,24,-5.90
2012,12,08,06,25,-5.90
2012,12,08,06,26,-5.90
2012,12,08,06,27,-5.90
2012,12,08,06,28,-5.90
2012,12,08,06,29,-5.90
2012,12,08,06,30,-5.90
2012,12,08,06,31,-5.90
2012,12,08,06,32,-5.90
2012,12,08,06,33,-5.90
2012,12,08,06,34,-5.90
2012,12,08,06,35,-5.90
2012,12,08,06,36,-5.90
2012,12,08,06,37,-5.90
2012,12,08,06,38,-5.90
2012,12,08,06,39,-5.80
2012,12,08,06,40,-5.80
2012,12,08,06,41,-5.80
2012,12,08,06,42,-5.80
2012,12,08,06,43,-5.80
2012,12,08,06,44,-5.80
2012,12,08,06,45,-5.80
2012,12,08,06,46,-5.80
2012,12,08,06,47,-5.80
2012,12,08,06,48,-5.80
2012,12,08,06,49,-5.80
2012,12,08,06,50,-5.80
2012,12,08,06,51,-5.80
2012,12,08,06,52,-5.70
2012,12,08,06,53,-5.70
2012,12,08,06,54,-5.70
2012,12,08,06,55,-5.70
2012,12,08,06,56,-5.70
2012,12,08,06,57,-5.70
2012,12,08,06,58,-5.70
2012,12,08,06,59,-5.70
2012,12,08,07,00,-5.70
2012,12,08,07,01,-5.70
2012,12,08,07,02,-5.70
2012,12,08,07,03,-5.70
2012,12,08,07,04,-5.70
2012,12,08,07,05,-5.80
2012,12,08,07,06,-5.80
2012,12,08,07,07,-5.80
2012,12,08,07,08,-5.80
2012,12,08,07,09,-5.80
2012,12,08,07,10,-5.80
2012,12,08,07,11,-5.80
2012,12,08,07,12,-5.80
2012,12,08,07,13,-5.80
2012,12,08,07,14,-5.80
2012,12,08,07,15,-5.80
2012,12,08,07,16,-5.70
2012,12,08,07,17,-5.70
2012,12,08,07,18,-5.70
2012,12,08,07,19,-5.80
2012,12,08,07,20,-5.80
2012,12,08,07,21,-5.70
2012,12,08,07,22,-5.70
2012,12,08,07,23,-5.70
2012,12,08,07,24,-5.70
2012,12,08,07,25,-5.70
2012,12,08,07,26,-5.70
2012,12,08,07,27,-5.70
2012,12,08,07,28,-5.70
2012,12,08,07,29,-5.70
2012,12,08,07,30,-5.70
2012,12,08,07,31,-5.70
2012,12,08,07,32,-5.70
2012,12,08,07,33,-5.70
2012,12,08,07,34,-5.70
2012,12,08,07,35,-5.70
2012,12,08,07,36,-5.70
2012,12,08,07,37,-5.70
2012,12,08,07,38,-5.70
2012,12,08,07,39,-5.70
2012,12,08,07,40,-5.70
2012,12,08,07,41,-5.70
2012,12,08,07,42,-5.70
2012,12,08,07,43,-5.70
2012,12,08,07,44,-5.70
2012,12,08,07,45,-5.70
2012,12,08,07,46,-5.70
2012,12,08,07,47,-5.70
2012,12,08,07,48,-5.70
2012,12,08,07,49,-5.70
2012,12,08,07,50,-5.70
2012,12,08,07,51,-5.70
2012,12,08,07,52,-5.70
2012,12,08,07,53,-5.70
2012,12,08,07,54,-5.70
2012,12,08,07,55,-5.80
2012,12,08,07,56,-5.80
2012,12,08,07,57,-5.80
2012,12,08,07,58,-5.80
2012,12,08,07,59,-5.80
2012,12,08,08,00,-5.80
2012,12,08,08,01,-5.80
2012,12,08,08,02,-5.90
2012,12,08,08,03,-6.00
2012,12,08,08,04,-6.00
2012,12,08,08,05,-6.10
2012,12,08,08,06,-6.20
2012,12,08,08,07,-6.20
2012,12,08,08,08,-6.30
2012,12,08,08,09,-6.30
2012,12,08,08,10,-6.40
2012,12,08,08,11,-6.40
2012,12,08,08,12,-6.50
2012,12,08,08,13,-6.60
2012,12,08,08,14,-6.60
2012,12,08,08,15,-6.60
2012,12,08,08,16,-6.70
2012,12,08,08,17,-6.70
2012,12,08,08,18,-6.70
2012,12,08,08,19,-6.80
2012,12,08,08,20,-6.80
2012,12,08,08,21,-6.80
2012,12,08,08,22,-6.80
2012,12,08,08,23,-6.80
2012,12,08,08,24,-6.90
2012,12,08,08,25,-6.90
2012,12,08,08,26,-6.90
2012,12,08,08,27,-6.90
2012,12,08,08,28,-7.00
2012,12,08,08,29,-7.00
2012,12,08,08,30,-7.00
2012,12,08,08,31,-7.00
2012,12,08,08,32,-7.00
2012,12,08,08,33,-7.00
2012,12,08,08,34,-7.00
2012,12,08,08,35,-7.00
2012,12,08,08,36,-7.00
2012,12,08,08,37,-7.00
2012,12,08,08,38,-7.00
2012,12,08,08,39,-7.00
2012,12,08,08,40,-7.00
2012,12,08,08,41,-7.00
2012,12,08,08,42,-7.00
2012,12,08,08,43,-7.00
2012,12,08,08,44,-7.00
2012,12,08,08,45,-7.10
2012,12,08,08,46,-7.10
2012,12,08,08,47,-7.10
2012,12,08,08,48,-7.10
2012,12,08,08,49,-7.10
2012,12,08,08,50,-7.10
2012,12,08,08,51,-7.20
2012,12,08,08,52,-7.20
2012,12,08,08,53,-7.20
2012,12,08,08,54,-7.20
2012,12,08,08,55,-7.20
2012,12,08,08,56,-7.20
2012,12,08,08,57,-7.20
2012,12,08,08,58,-7.20
2012,12,08,08,59,-7.10
2012,12,08,09,00,-7.10
2012,12,08,09,01,-7.10
2012,12,08,09,02,-7.00
2012,12,08,09,03,-7.00
2012,12,08,09,04,-7.00
2012,12,08,09,05,-6.90
2012,12,08,09,06,-6.90
2012,12,08,09,07,-6.80
2012,12,08,09,08,-6.90
2012,12,08,09,09,-6.80
2012,12,08,09,10,-6.90
2012,12,08,09,11,-6.80
2012,12,08,09,12,-6.90
2012,12,08,09,13,-6.90
2012,12,08,09,14,-6.90
2012,12,08,09,15,-6.90
2012,12,08,09,16,-7.00
2012,12,08,09,17,-7.00
2012,12,08,09,18,-7.00
2012,12,08,09,19,-7.00
2012,12,08,09,20,-7.00
2012,12,08,09,21,-7.00
2012,12,08,09,22,-7.00
2012,12,08,09,23,-7.00
2012,12,08,09,24,-7.00
2012,12,08,09,25,-7.00
2012,12,08,09,26,-7.00
2012,12,08,09,27,-7.00
2012,12,08,09,28,-7.00
2012,12,08,09,29,-7.00
2012,12,08,09,30,-7.00
2012,12,08,09,31,-7.00
2012,12,08,09,32,-7.00
2012,12,08,09,33,-7.00
2012,12,08,09,34,-7.00
2012,12,08,09,35,-7.00
2012,12,08,09,36,-7.00
2012,12,08,09,37,-7.00
2012,12,08,09,38,-7.00
2012,12,08,09,39,-7.00
2012,12,08,09,40,-7.00
2012,12,08,09,41,-6.90
2012,12,08,09,42,-6.90
2012,12,08,09,43,-6.90
2012,12,08,09,44,-6.80
2012,12,08,09,45,-6.80
2012,12,08,09,46,-6.80
2012,12,08,09,47,-6.80
2012,12,08,09,48,-6.70
2012,12,08,09,49,-6.70
2012,12,08,09,50,-6.70
2012,12,08,09,51,-6.70
2012,12,08,09,52,-6.70
2012,12,08,09,53,-6.70
2012,12,08,09,54,-6.60
2012,12,08,09,55,-6.60
2012,12,08,09,56,-6.60
2012,12,08,09,57,-6.60
2012,12,08,09,58,-6.60
2012,12,08,09,59,-6.60
2012,12,08,10,00,-6.60
2012,12,08,10,01,-6.60
2012,12,08,10,02,-6.60
2012,12,08,10,03,-6.60
2012,12,08,10,04,-6.50
2012,12,08,10,05,-6.50
2012,12,08,10,06,-6.40
2012,12,08,10,07,-6.40
2012,12,08,10,08,-6.30
2012,12,08,10,09,-6.30
2012,12,08,10,10,-6.20
2012,12,08,10,11,-6.20
2012,12,08,10,12,-6.10
2012,12,08,10,13,-6.10
2012,12,08,10,14,-6.10
2012,12,08,10,15,-6.00
2012,12,08,10,16,-6.00
2012,12,08,10,17,-5.90
2012,12,08,10,18,-5.90
2012,12,08,10,19,-5.90
2012,12,08,10,20,-5.90
2012,12,08,10,21,-5.90
2012,12,08,10,22,-5.90
2012,12,08,10,23,-5.90
2012,12,08,10,24,-5.80
2012,12,08,10,25,-5.80
2012,12,08,10,26,-5.80
2012,12,08,10,27,-5.80
2012,12,08,10,28,-5.80
2012,12,08,10,29,-5.80
2012,12,08,10,30,-5.80
2012,12,08,10,31,-5.80
2012,12,08,10,32,-5.80
2012,12,08,10,33,-5.80
2012,12,08,10,34,-5.80
2012,12,08,10,35,-5.80
2012,12,08,10,36,-5.80
2012,12,08,10,37,-5.80
2012,12,08,10,38,-5.80
2012,12,08,10,39,-5.90
2012,12,08,10,40,-5.90
2012,12,08,10,41,-5.90
2012,12,08,10,42,-5.90
2012,12,08,10,43,-5.90
2012,12,08,10,44,-5.90
2012,12,08,10,45,-5.90
2012,12,08,10,46,-5.90
2012,12,08,10,47,-6.00
2012,12,08,10,48,-6.00
2012,12,08,10,49,-6.00
2012,12,08,10,50,-6.10
2012,12,08,10,51,-6.10
2012,12,08,10,52,-6.10
2012,12,08,10,53,-6.10
2012,12,08,10,54,-6.10
2012,12,08,10,55,-6.20
2012,12,08,10,56,-6.20
2012,12,08,10,57,-6.20
2012,12,08,10,58,-6.20
2012,12,08,10,59,-6.20
2012,12,08,11,00,-6.20
2012,12,08,11,01,-6.30
2012,12,08,11,02,-6.30
2012,12,08,11,03,-6.30
2012,12,08,11,04,-6.30
2012,12,08,11,05,-6.40
2012,12,08,11,06,-6.40
2012,12,08,11,07,-6.40
2012,12,08,11,08,-6.40
2012,12,08,11,09,-6.40
2012,12,08,11,10,-6.40
2012,12,08,11,11,-6.50
2012,12,08,11,12,-6.50
2012,12,08,11,13,-6.50
2012,12,08,11,14,-6.60
2012,12,08,11,15,-6.60
2012,12,08,11,16,-6.60
2012,12,08,11,17,-6.60
2012,12,08,11,18,-6.60
2012,12,08,11,19,-6.70
2012,12,08,11,20,-6.70
2012,12,08,11,21,-6.70
2012,12,08,11,22,-6.80
2012,12,08,11,23,-6.80
2012,12,08,11,24,-6.80
2012,12,08,11,25,-6.80
2012,12,08,11,26,-6.90
2012,12,08,11,27,-7.00
2012,12,08,11,28,-7.00
2012,12,08,11,29,-7.00
2012,12,08,11,30,-7.10
2012,12,08,11,31,-7.10
2012,12,08,11,32,-7.10
2012,12,08,11,33,-7.20
2012,12,08,11,34,-7.20
2012,12,08,11,35,-7.30
2012,12,08,11,36,-7.30
2012,12,08,11,37,-7.30
2012,12,08,11,38,-7.30
2012,12,08,11,39,-7.40
2012,12,08,11,40,-7.40
2012,12,08,11,41,-7.50
2012,12,08,11,42,-7.50
2012,12,08,11,43,-7.60
2012,12,08,11,44,-7.60
2012,12,08,11,45,-7.70
2012,12,08,11,46,-7.70
2012,12,08,11,47,-7.80
2012,12,08,11,48,-7.80
2012,12,08,11,49,-7.90
2012,12,08,11,50,-7.90
2012,12,08,11,51,-8.00
2012,12,08,11,52,-8.00
2012,12,08,11,53,-8.00
2012,12,08,11,54,-8.10
2012,12,08,11,55,-8.20
2012,12,08,11,56,-8.30
2012,12,08,11,57,-8.30
2012,12,08,11,58,-8.40
2012,12,08,11,59,-8.40
2012,12,08,12,00,-8.50
2012,12,08,12,01,-8.60
2012,12,08,12,02,-8.60
2012,12,08,12,03,-8.60
2012,12,08,12,04,-8.70
2012,12,08,12,05,-8.80
2012,12,08,12,06,-8.90
2012,12,08,12,07,-8.90
2012,12,08,12,08,-9.00
2012,12,08,12,09,-9.00
2012,12,08,12,10,-9.10
2012,12,08,12,11,-9.10
2012,12,08,12,12,-9.30
2012,12,08,12,13,-9.30
2012,12,08,12,14,-9.40
2012,12,08,12,15,-9.40
2012,12,08,12,16,-9.40
2012,12,08,12,17,-9.50
2012,12,08,12,18,-9.50
2012,12,08,12,19,-9.50
2012,12,08,12,20,-9.60
2012,12,08,12,21,-9.60
2012,12,08,12,22,-9.70
2012,12,08,12,23,-9.70
2012,12,08,12,24,-9.80
2012,12,08,12,25,-9.80
2012,12,08,12,26,-9.90
2012,12,08,12,27,-9.90
2012,12,08,12,28,-10.00
2012,12,08,12,29,-10.00
2012,12,08,12,30,-10.10
2012,12,08,12,31,-10.10
2012,12,08,12,32,-10.10
2012,12,08,12,33,-10.10
2012,12,08,12,34,-10.20
2012,12,08,12,35,-10.20
2012,12,08,12,36,-10.20
2012,12,08,12,37,-10.20
2012,12,08,12,38,-10.20
2012,12,08,12,39,-10.20
2012,12,08,12,40,-10.20
2012,12,08,12,41,-10.20
2012,12,08,12,42,-10.20
2012,12,08,12,43,-10.20
2012,12,08,12,44,-10.30
2012,12,08,12,45,-10.30
2012,12,08,12,46,-10.40
2012,12,08,12,47,-10.40
2012,12,08,12,48,-10.50
2012,12,08,12,49,-10.60
2012,12,08,12,50,-10.60
2012,12,08,12,51,-10.80
2012,12,08,12,52,-10.90
2012,12,08,12,53,-10.90
2012,12,08,12,54,-11.00
2012,12,08,12,55,-11.00
2012,12,08,12,56,-11.10
2012,12,08,12,57,-11.10
2012,12,08,12,58,-11.20
2012,12,08,12,59,-11.20
2012,12,08,13,00,-11.20
2012,12,08,13,01,-11.30
2012,12,08,13,02,-11.30
2012,12,08,13,03,-11.40
2012,12,08,13,04,-11.50
2012,12,08,13,05,-11.50
2012,12,08,13,06,-11.50
2012,12,08,13,07,-11.60
2012,12,08,13,08,-11.70
2012,12,08,13,09,-11.70
2012,12,08,13,10,-11.80
2012,12,08,13,11,-11.90
2012,12,08,13,12,-12.00
2012,12,08,13,13,-12.00
2012,12,08,13,14,-12.10
2012,12,08,13,15,-12.10
2012,12,08,13,16,-12.20
2012,12,08,13,17,-12.20
2012,12,08,13,18,-12.20
2012,12,08,13,19,-12.20
2012,12,08,13,20,-12.30
2012,12,08,13,21,-12.30
2012,12,08,13,22,-12.30
2012,12,08,13,23,-12.30
2012,12,08,13,24,-12.30
2012,12,08,13,25,-12.40
2012,12,08,13,26,-12.40
2012,12,08,13,27,-12.40
2012,12,08,13,28,-12.40
2012,12,08,13,29,-12.40
2012,12,08,13,30,-12.40
2012,12,08,13,31,-12.40
2012,12,08,13,32,-12.40
2012,12,08,13,33,-12.40
2012,12,08,13,34,-12.50
2012,12,08,13,35,-12.50
2012,12,08,13,36,-12.50
2012,12,08,13,37,-12.50
2012,12,08,13,38,-12.40
2012,12,08,13,39,-12.40
2012,12,08,13,40,-12.40
2012,12,08,13,41,-12.40
2012,12,08,13,42,-12.40
2012,12,08,13,43,-12.30
2012,12,08,13,44,-12.30
2012,12,08,13,45,-12.30
2012,12,08,13,46,-12.30
2012,12,08,13,47,-12.30
2012,12,08,13,48,-12.30
2012,12,08,13,49,-12.40
2012,12,08,13,50,-12.40
2012,12,08,13,51,-12.40
2012,12,08,13,52,-12.40
2012,12,08,13,53,-12.50
2012,12,08,13,54,-12.50
2012,12,08,13,55,-12.50
2012,12,08,13,56,-12.60
2012,12,08,13,57,-12.60
2012,12,08,13,58,-12.60
2012,12,08,13,59,-12.60
2012,12,08,14,00,-12.70
2012,12,08,14,01,-12.70
2012,12,08,14,02,-12.70
2012,12,08,14,03,-12.80
2012,12,08,14,04,-12.80
2012,12,08,14,05,-12.90
2012,12,08,14,06,-12.90
2012,12,08,14,07,-12.90
2012,12,08,14,08,-13.00
2012,12,08,14,09,-13.00
2012,12,08,14,10,-13.10
2012,12,08,14,11,-13.10
2012,12,08,14,12,-13.20
2012,12,08,14,13,-13.20
2012,12,08,14,14,-13.20
2012,12,08,14,15,-13.20
2012,12,08,14,16,-13.30
2012,12,08,14,17,-13.30
2012,12,08,14,18,-13.40
2012,12,08,14,19,-13.40
2012,12,08,14,20,-13.40
2012,12,08,14,21,-13.40
2012,12,08,14,22,-13.50
2012,12,08,14,23,-13.50
2012,12,08,14,24,-13.60
2012,12,08,14,25,-13.70
2012,12,08,14,26,-13.80
2012,12,08,14,27,-13.80
2012,12,08,14,28,-13.90
2012,12,08,14,29,-13.90
2012,12,08,14,30,-14.00
2012,12,08,14,31,-14.10
2012,12,08,14,32,-14.20
2012,12,08,14,33,-14.20
2012,12,08,14,34,-14.20
2012,12,08,14,35,-14.20
2012,12,08,14,36,-14.20
2012,12,08,14,37,-14.20
2012,12,08,14,38,-14.20
2012,12,08,14,39,-14.20
2012,12,08,14,40,-14.20
2012,12,08,14,41,-14.20
2012,12,08,14,42,-14.20
2012,12,08,14,43,-14.20
2012,12,08,14,44,-14.20
2012,12,08,14,45,-14.30
2012,12,08,14,46,-14.30
2012,12,08,14,47,-14.40
2012,12,08,14,48,-14.40
2012,12,08,14,49,-14.40
2012,12,08,14,50,-14.40
2012,12,08,14,51,-14.50
2012,12,08,14,52,-14.50
2012,12,08,14,53,-14.50
2012,12,08,14,54,-14.50
2012,12,08,14,55,-14.50
2012,12,08,14,56,-14.50
2012,12,08,14,57,-14.60
2012,12,08,14,58,-14.60
2012,12,08,14,59,-14.60
2012,12,08,15,00,-14.60
2012,12,08,15,01,-14.60
2012,12,08,15,02,-14.70
2012,12,08,15,03,-14.70
2012,12,08,15,04,-14.70
2012,12,08,15,05,-14.70
2012,12,08,15,06,-14.80
2012,12,08,15,07,-14.80
2012,12,08,15,08,-14.80
2012,12,08,15,09,-14.80
2012,12,08,15,10,-14.80
2012,12,08,15,11,-14.90
2012,12,08,15,12,-14.90
2012,12,08,15,13,-15.00
2012,12,08,15,14,-15.00
2012,12,08,15,15,-15.10
2012,12,08,15,16,-15.10
2012,12,08,15,17,-15.20
2012,12,08,15,18,-15.20
2012,12,08,15,19,-15.30
2012,12,08,15,20,-15.30
2012,12,08,15,21,-15.40
2012,12,08,15,22,-15.40
2012,12,08,15,23,-15.50
2012,12,08,15,24,-15.60
2012,12,08,15,25,-15.60
2012,12,08,15,26,-15.70
2012,12,08,15,27,-15.80
2012,12,08,15,28,-15.80
2012,12,08,15,29,-15.80
2012,12,08,15,30,-15.90
2012,12,08,15,31,-16.00
2012,12,08,15,32,-16.00
2012,12,08,15,33,-16.00
2012,12,08,15,34,-16.00
2012,12,08,15,35,-16.10
2012,12,08,15,36,-16.10
2012,12,08,15,37,-16.10
2012,12,08,15,38,-16.20
2012,12,08,15,39,-16.20
2012,12,08,15,40,-16.30
2012,12,08,15,41,-16.30
2012,12,08,15,42,-16.30
2012,12,08,15,43,-16.40
2012,12,08,15,44,-16.40
2012,12,08,15,45,-16.50
2012,12,08,15,46,-16.50
2012,12,08,15,47,-16.60
2012,12,08,15,48,-16.60
2012,12,08,15,49,-16.70
2012,12,08,15,50,-16.70
2012,12,08,15,51,-16.80
2012,12,08,15,52,-16.80
2012,12,08,15,53,-16.90
2012,12,08,15,54,-16.90
2012,12,08,15,55,-16.90
2012,12,08,15,56,-16.90
2012,12,08,15,57,-17.00
2012,12,08,15,58,-17.00
2012,12,08,15,59,-17.00
2012,12,08,16,00,-17.10
2012,12,08,16,01,-17.10
2012,12,08,16,02,-17.10
2012,12,08,16,03,-17.10
2012,12,08,16,04,-17.10
2012,12,08,16,05,-17.10
2012,12,08,16,06,-17.20
2012,12,08,16,07,-17.20
2012,12,08,16,08,-17.20
2012,12,08,16,09,-17.20
2012,12,08,16,10,-17.30
2012,12,08,16,11,-17.30
2012,12,08,16,12,-17.40
2012,12,08,16,13,-17.40
2012,12,08,16,14,-17.40
2012,12,08,16,15,-17.50
2012,12,08,16,16,-17.50
2012,12,08,16,17,-17.60
2012,12,08,16,18,-17.60
2012,12,08,16,19,-17.60
2012,12,08,16,20,-17.70
2012,12,08,16,21,-17.70
2012,12,08,16,22,-17.80
2012,12,08,16,23,-17.80
2012,12,08,16,24,-17.80
2012,12,08,16,25,-17.80
2012,12,08,16,26,-17.80
2012,12,08,16,27,-17.90
2012,12,08,16,28,-17.90
2012,12,08,16,29,-17.90
2012,12,08,16,30,-17.90
2012,12,08,16,31,-17.90
2012,12,08,16,32,-17.90
2012,12,08,16,33,-17.90
2012,12,08,16,34,-17.80
2012,12,08,16,35,-17.90
2012,12,08,16,36,-17.90
2012,12,08,16,37,-17.90
2012,12,08,16,38,-17.90
2012,12,08,16,39,-17.90
2012,12,08,16,40,-17.90
2012,12,08,16,41,-17.90
2012,12,08,16,42,-17.90
2012,12,08,16,43,-17.90
2012,12,08,16,44,-18.00
2012,12,08,16,45,-18.00
2012,12,08,16,46,-18.00
2012,12,08,16,47,-18.10
2012,12,08,16,48,-18.10
2012,12,08,16,49,-18.20
2012,12,08,16,50,-18.20
2012,12,08,16,51,-18.30
2012,12,08,16,52,-18.30
2012,12,08,16,53,-18.40
2012,12,08,16,54,-18.40
2012,12,08,16,55,-18.50
2012,12,08,16,56,-18.60
2012,12,08,16,57,-18.60
2012,12,08,16,58,-18.70
2012,12,08,16,59,-18.70
2012,12,08,17,00,-18.80
2012,12,08,17,01,-18.80
2012,12,08,17,02,-18.80
2012,12,08,17,03,-18.80
2012,12,08,17,04,-18.80
2012,12,08,17,05,-18.90
2012,12,08,17,06,-18.90
2012,12,08,17,07,-18.90